Regional Weather Roundup
Issued by NWS

Home | Current Version | Previous Version | Graphics & Text | Print | Product List | Glossary On
Versions: 1 2 3 4 5 6 7 8 9 10 11 12 13 14 15 16 17 18 19 20 21 22 23 24 25 26 27 28
000
ASUS45 KBOU 290910
RWRCO

WEATHER ROUNDUP FOR COLORADO
NATIONAL WEATHER SERVICE DENVER/BOULDER CO
300 AM MDT THU SEP 29 2016

NOTE: "FAIR" INDICATES FEW OR NO CLOUDS BELOW 12000 FEET WITH NO
SIGNIFICANT WEATHER AND/OR OBSTRUCTIONS TO VISIBILITY.

COZ001>005-013-030-031-291000-
...NORTHWEST COLORADO...

CITY           SKY/WX    TMP DP  RH WIND       PRES   REMARKS
CRAIG          FAIR      45  36  70 CALM      30.36R
HAYDEN         NOT AVBL
MEEKER         CLOUDY    51  41  68 CALM      30.38R
MOUNT WERNER   NOT AVBL
STEAMBOAT SPGS FAIR      51  33  50 CALM      30.39R
WALDEN           N/A     37  27  65 SE6       30.50R
$$

COZ006>008-011-291000-
...WEST CENTRAL VALLEYS...

CITY           SKY/WX    TMP DP  RH WIND       PRES   REMARKS
GRAND JUNCTION MOCLDY    63  42  46 E5        30.26S
MONTROSE       CLOUDY    59  40  49 S7        30.36R
EAGLE          FAIR      46  30  53 E5        30.41S
RIFLE          FAIR      54  43  66 E3        30.33R
DELTA          NOT AVBL
NUCLA          MOCLDY    59  37  44 E7        30.41R
$$

COZ017>023-064>068-291000-
...SOUTHWEST COLORADO...

CITY           SKY/WX    TMP DP  RH WIND       PRES   REMARKS
DURANGO        FAIR      54  41  61 CALM      30.43S
CORTEZ         CLOUDY    56  49  77 CALM      30.39R
PAGOSA SPRINGS FAIR      48  31  51 CALM      30.50S
TELLURIDE      FAIR      56  33  40 CALM      30.56S
WOLF CREEK PAS FAIR      41  25  52 MISG      30.76S
$$

COZ009-010-012-014-032>034-037-058>063-291000-
...CENTRAL COLORADO...

CITY           SKY/WX    TMP DP  RH WIND       PRES   REMARKS
ASPEN          FAIR      51  30  44 S10       30.44S
BUENA VISTA    FAIR      38  26  61 W5        30.53S
COPPER MTN     FAIR      46  21  36 S15G21    30.72R
BERTHOUD PASS  FAIR      37  25  60 SW13      30.75S
COTTONWOOD PAS FAIR      52  23  32 W5        30.62S
GUNNISON       FAIR      45  29  53 E3        30.49R HAZE
KREMMLING      FAIR      41  27  56 CALM      30.47R
LEADVILLE      FAIR      40  24  53 NE5       30.61S
MONARCH PASS   FAIR      41  21  45 S12       30.84S
SALIDA         FAIR      48  30  49 W7        30.59R
SUNLIGHT       FAIR      50  32  50 W6        30.67S
WILKERSON PASS FAIR      41  25  52 S8        30.71F
$$

COZ069>075-291000-
...SAN LUIS VALLEY/SANGRE DE CRISTO MOUNTAINS...

CITY           SKY/WX    TMP DP  RH WIND       PRES   REMARKS
ALAMOSA        FAIR      40  26  57 E7        30.49R
LA VETA PASS   NOT AVBL
SAGUACHE       NOT AVBL
$$

COZ035-036-038>040-291000-
...NORTHERN COLORADO FRONT RANGE...

CITY           SKY/WX    TMP DP  RH WIND       PRES   REMARKS
DENVER INTL AP FAIR      51  32  48 S14       30.36F
DMNS CITY PARK   N/A     52  40  64 SE7       30.35F
AURORA         NOT AVBL
FRONT RANGE AP NOT AVBL
ERIE MUNI ARPT FAIR      49  38  65 S3        30.35F
BOULDER MUN AP FAIR      55  36  47 CALM      30.36R
CENTENNIAL     FAIR      57  33  40 CALM      30.38F
BROOMFIELD     FAIR      54  36  50 W6        30.38S
FORT COLLINS   FAIR      50  39  66 N7        30.35S
LONGMONT       FAIR      55  39  55 CALM      30.37S
$$

COZ041-046-047-076>085-087-088-291000-
...PIKES PEAK/PALMER DIVIDE AND SOUTHERN FOOTHILLS...

CITY           SKY/WX    TMP DP  RH WIND       PRES   REMARKS
COLO. SPRINGS  FAIR      53  37  54 E8        30.44F
A. F. ACADEMY  NOT AVBL
SCHRIEVER AFB  NOT AVBL
ELLICOTT       NOT AVBL
FALCON         FAIR      48  37  64 CALM      30.48S
FORT CARSON    NOT AVBL
LIMON          FAIR      43  38  82 S5        30.42F
MONUMENT HILL  FAIR      46  36  66 S8        30.47S
TRINIDAD       FAIR      55  28  35 SW14      30.39F
$$

COZ042>045-048>051-090-091-291000-
...NORTHEAST COLORADO...

CITY           SKY/WX    TMP DP  RH WIND       PRES   REMARKS
GREELEY ARPT   FAIR      50  39  66 E5        30.35S
AKRON          FAIR      52  41  66 S12       30.38F
BURLINGTON     FAIR      49  39  68 S8        30.40S
WRAY           NOT AVBL
STERLING       FAIR      50  41  71 SW3       30.36F
HOLYOKE        FAIR      43  37  81 SE3       30.38S
FORT MORGAN    FAIR      50  39  66 S5        30.37F
$$

COZ086-089-092>099-291000-
...SOUTHEAST COLORADO...

CITY           SKY/WX    TMP DP  RH WIND       PRES   REMARKS
PUEBLO         FAIR      56  38  50 CALM      30.35R
LA JUNTA       FAIR      54  43  66 E12       30.35R
LAMAR          FAIR      48  40  73 E6        30.36R
SPRINGFIELD      N/A     46  41  82 S5        30.39S
$$




USA.gov is the U.S. government's official web portal to all federal, state and local government web resources and services.